Hourly Weather Zaranj

Today, 10 August, Monday

Time Temperature Precipitation Wind Pressure Humidity
00:00 +34°C° 0 mm 11 mps 709 mmHg 20%
01:00 +34°C° 0 mm 11 mps 709 mmHg 20%
02:00 +33°C° 0 mm 11 mps 709 mmHg 20%
03:00 +32°C° 0 mm 10 mps 709 mmHg 21%
04:00 +31°C° 0 mm 10 mps 709 mmHg 22%
05:00 +32°C° 0 mm 10 mps 710 mmHg 21%
06:00 +32°C° 0 mm 10 mps 710 mmHg 20%
07:00 +33°C° 0 mm 10 mps 711 mmHg 19%
08:00 +37°C° 0 mm 11 mps 711 mmHg 15%
09:00 +39°C° 0 mm 11 mps 711 mmHg 12%
10:00 +43°C° 0 mm 11 mps 711 mmHg 9%
11:00 +46°C° 0 mm 11 mps 710 mmHg 8%
12:00 +47°C° 0 mm 11 mps 710 mmHg 7%
13:00 +49°C° 0 mm 10 mps 710 mmHg 7%
14:00 +49°C° 0 mm 10 mps 710 mmHg 7%
15:00 +49°C° 0 mm 10 mps 709 mmHg 7%
16:00 +49°C° 0 mm 10 mps 709 mmHg 7%
17:00 +47°C° 0 mm 9 mps 709 mmHg 9%
18:00 +44°C° 0 mm 8 mps 709 mmHg 10%
19:00 +40°C° 0 mm 7 mps 709 mmHg 12%
20:00 +39°C° 0 mm 7 mps 709 mmHg 13%
21:00 +38°C° 0 mm 8 mps 709 mmHg 14%
22:00 +37°C° 0 mm 8 mps 709 mmHg 14%
23:00 +36°C° 0 mm 10 mps 709 mmHg 15%

Tomorrow, 11 August, Tuesday

Time Temperature Precipitation Wind Pressure Humidity
00:00 +36°C° 0 mm 11 mps 709 mmHg 15%
01:00 +34°C° 0 mm 12 mps 709 mmHg 15%
02:00 +34°C° 0 mm 13 mps 709 mmHg 16%
03:00 +34°C° 0 mm 13 mps 709 mmHg 16%
04:00 +34°C° 0 mm 14 mps 709 mmHg 17%
05:00 +34°C° 0 mm 15 mps 709 mmHg 16%
06:00 +36°C° 0 mm 15 mps 710 mmHg 15%
07:00 +36°C° 0 mm 16 mps 710 mmHg 14%
08:00 +38°C° 0 mm 16 mps 710 mmHg 13%
09:00 +41°C° 0 mm 16 mps 710 mmHg 11%
10:00 +44°C° 0 mm 16 mps 710 mmHg 9%
11:00 +45°C° 0 mm 15 mps 710 mmHg 8%
12:00 +47°C° 0 mm 15 mps 710 mmHg 7%
13:00 +48°C° 0 mm 14 mps 709 mmHg 6%
14:00 +48°C° 0 mm 14 mps 709 mmHg 6%
15:00 +48°C° 0 mm 14 mps 708 mmHg 6%
16:00 +48°C° 0 mm 14 mps 708 mmHg 6%
17:00 +46°C° 0 mm 13 mps 708 mmHg 8%
18:00 +43°C° 0 mm 11 mps 708 mmHg 10%
19:00 +40°C° 0 mm 10 mps 708 mmHg 11%
20:00 +39°C° 0 mm 11 mps 708 mmHg 12%
21:00 +38°C° 0 mm 12 mps 708 mmHg 14%
22:00 +37°C° 0 mm 13 mps 708 mmHg 15%
23:00 +37°C° 0 mm 13 mps 708 mmHg 16%

Day after tomorrow, 12 August, Wednesday

Time Temperature Precipitation Wind Pressure Humidity
00:00 +36°C° 0 mm 13 mps 708 mmHg 17%
01:00 +34°C° 0 mm 13 mps 708 mmHg 18%
02:00 +33°C° 0 mm 12 mps 707 mmHg 18%
03:00 +33°C° 0 mm 12 mps 707 mmHg 19%
04:00 +32°C° 0 mm 11 mps 707 mmHg 19%
05:00 +32°C° 0 mm 12 mps 708 mmHg 19%
06:00 +33°C° 0 mm 12 mps 708 mmHg 18%
07:00 +33°C° 0 mm 12 mps 709 mmHg 18%
08:00 +36°C° 0 mm 11 mps 709 mmHg 16%
09:00 +38°C° 0 mm 11 mps 709 mmHg 13%
10:00 +42°C° 0 mm 10 mps 710 mmHg 11%
11:00 +44°C° 0 mm 9 mps 709 mmHg 9%
12:00 +46°C° 0 mm 8 mps 709 mmHg 7%
13:00 +49°C° 0 mm 8 mps 709 mmHg 6%
14:00 +49°C° 0 mm 8 mps 708 mmHg 5%
15:00 +50°C° 0 mm 8 mps 708 mmHg 5%
16:00 +50°C° 0 mm 8 mps 707 mmHg 4%
17:00 +48°C° 0 mm 8 mps 707 mmHg 5%
18:00 +45°C° 0 mm 8 mps 707 mmHg 7%
19:00 +42°C° 0 mm 9 mps 707 mmHg 8%
20:00 +40°C° 0 mm 9 mps 707 mmHg 8%
21:00 +39°C° 0 mm 10 mps 707 mmHg 9%
22:00 +38°C° 0 mm 11 mps 708 mmHg 10%
23:00 +37°C° 0 mm 11 mps 707 mmHg 11%

13 August, Thursday

Time Temperature Precipitation Wind Pressure Humidity
00:00 +34°C° 0 mm 10 mps 707 mmHg 12%
01:00 +33°C° 0 mm 10 mps 707 mmHg 14%
02:00 +32°C° 0 mm 9 mps 707 mmHg 15%
03:00 +32°C° 0 mm 9 mps 707 mmHg 15%
04:00 +31°C° 0 mm 8 mps 707 mmHg 16%
05:00 +32°C° 0 mm 9 mps 707 mmHg 16%
06:00 +32°C° 0 mm 9 mps 708 mmHg 15%
07:00 +33°C° 0 mm 9 mps 708 mmHg 14%
08:00 +35°C° 0 mm 9 mps 709 mmHg 12%
09:00 +39°C° 0 mm 8 mps 709 mmHg 10%
10:00 +41°C° 0 mm 8 mps 709 mmHg 7%
11:00 +44°C° 0 mm 7 mps 709 mmHg 6%
12:00 +46°C° 0 mm 6 mps 708 mmHg 5%
13:00 +48°C° 0 mm 5 mps 708 mmHg 4%
14:00 +48°C° 0 mm 3 mps 707 mmHg 4%
15:00 +48°C° 0 mm 2 mps 707 mmHg 3%
16:00 +48°C° 0 mm 1 mps 706 mmHg 3%
17:00 +44°C° 0 mm 1 mps 706 mmHg 4%
18:00 +41°C° 0 mm 2 mps 705 mmHg 5%
19:00 +37°C° 0 mm 2 mps 705 mmHg 7%
20:00 +39°C° 0 mm 5 mps 706 mmHg 10%
21:00 +39°C° 0 mm 7 mps 706 mmHg 13%
22:00 +39°C° 0 mm 9 mps 707 mmHg 16%
23:00 +38°C° 0 mm 9 mps 706 mmHg 17%

14 August, Friday

Time Temperature Precipitation Wind Pressure Humidity
00:00 +37°C° 0 mm 10 mps 706 mmHg 18%
01:00 +36°C° 0 mm 10 mps 706 mmHg 18%
02:00 +34°C° 0 mm 10 mps 706 mmHg 19%
03:00 +34°C° 0 mm 9 mps 706 mmHg 20%
04:00 +33°C° 0 mm 9 mps 706 mmHg 20%
05:00 +34°C° 0 mm 10 mps 706 mmHg 20%
06:00 +34°C° 0 mm 10 mps 707 mmHg 19%
07:00 +36°C° 0 mm 11 mps 707 mmHg 18%
08:00 +38°C° 0 mm 10 mps 707 mmHg 15%
09:00 +42°C° 0 mm 10 mps 708 mmHg 13%
10:00 +44°C° 0 mm 9 mps 708 mmHg 10%
11:00 +46°C° 0 mm 8 mps 707 mmHg 8%
12:00 +49°C° 0 mm 7 mps 707 mmHg 7%
13:00 +51°C° 0 mm 6 mps 707 mmHg 5%
14:00 +50°C° 0 mm 5 mps 706 mmHg 5%
15:00 +51°C° 0 mm 3 mps 706 mmHg 4%
16:00 +50°C° 0 mm 2 mps 705 mmHg 4%
17:00 +47°C° 0 mm 3 mps 705 mmHg 5%
18:00 +44°C° 0 mm 3 mps 705 mmHg 7%
19:00 +39°C° 0 mm 3 mps 704 mmHg 8%
20:00 +40°C° 0 mm 6 mps 705 mmHg 10%
21:00 +40°C° 0 mm 8 mps 705 mmHg 11%
22:00 +40°C° 0 mm 10 mps 706 mmHg 13%
23:00 +39°C° 0 mm 10 mps 705 mmHg 14%

15 August, Saturday

Time Temperature Precipitation Wind Pressure Humidity
00:00 +38°C° 0 mm 10 mps 705 mmHg 15%
01:00 +37°C° 0 mm 10 mps 705 mmHg 16%
02:00 +36°C° 0 mm 10 mps 705 mmHg 16%
03:00 +35°C° 0 mm 9 mps 705 mmHg 17%
04:00 +34°C° 0 mm 9 mps 705 mmHg 18%
05:00 +34°C° 0 mm 9 mps 705 mmHg 18%
06:00 +34°C° 0 mm 9 mps 706 mmHg 17%
07:00 +35°C° 0 mm 9 mps 706 mmHg 17%
08:00 +38°C° 0 mm 9 mps 706 mmHg 14%
09:00 +41°C° 0 mm 8 mps 706 mmHg 12%
10:00 +44°C° 0 mm 8 mps 707 mmHg 9%
11:00 +46°C° 0 mm 7 mps 706 mmHg 8%
12:00 +49°C° 0 mm 7 mps 706 mmHg 7%
13:00 +51°C° 0 mm 6 mps 706 mmHg 5%
14:00 +50°C° 0 mm 5 mps 706 mmHg 5%
15:00 +52°C° 0 mm 5 mps 705 mmHg 4%
16:00 +51°C° 0 mm 4 mps 705 mmHg 4%
17:00 +48°C° 0 mm 4 mps 705 mmHg 6%
18:00 +44°C° 0 mm 4 mps 704 mmHg 7%
19:00 +42°C° 0 mm 4 mps 704 mmHg 9%
20:00 +41°C° 0 mm 7 mps 705 mmHg 10%
21:00 +42°C° 0 mm 9 mps 705 mmHg 11%
22:00 +42°C° 0 mm 12 mps 706 mmHg 12%
23:00 +41°C° 0 mm 12 mps 706 mmHg 14%
Show more